STARLINK-32129 (60157 NORAD) Tracking and Keplerian Element Data

This shows tracking and keplerian element data for the satellite.

Feedback or suggestion? Click here.




ElementValue
Catalog60157
NameSTARLINK-32129
Epoch Orbit1776
Epoch Day286.14704308
Epoch Year2024
RAAN190.0254
Inclination53.1582
Eccentricity5.82E-05
Argument of Perigee114.1327
Mean Anonmoly245.9738
Mean Motion15.39567153
Decay Rate0.00108151
L11 60157U 24120Y 24286.14704308 .00108151 00000+0 26802-2 0 9992
L22 60157 53.1582 190.0254 0000582 114.1327 245.9738 15.39567153 17764



Live tracking and technical data element details for STARLINK-32129 (NORAD 60157). STARLINK-32129 can be tracked NOW for your location showing map with azimuth and elevation plus other details from your city location.







IsCatalogInMostPopularTable: catalog: 60157, numindb: 14
Update: records affected: 1



GetName: 60157 STARLINK-32129

Hit Count: updated at: Thu, 23 Jan 2025 14:32:12 GMT